• In Hungary
  • List of Countries
  • For 7 days
  • Water Temperature
  • Satellite Maps
  • Weather Map
  • News
  • Weather Widgets
  • user-avatar
    Login

    Hourly Weather Førde

    Today, 17 January, Wednesday

    Time Temperature Precipitation Wind Pressure Humidity
    00:00 -8°C° 0 mm 4 mps 681 mmHg 89%
    01:00 -8°C° 0.1 mm 4 mps 681 mmHg 88%
    02:00 -9°C° 0.1 mm 4 mps 682 mmHg 87%
    03:00 -10°C° 0.1 mm 4 mps 682 mmHg 87%
    04:00 -10°C° 0.1 mm 4 mps 682 mmHg 86%
    05:00 -11°C° 0.1 mm 4 mps 683 mmHg 86%
    06:00 -11°C° 0 mm 5 mps 684 mmHg 83%
    07:00 -11°C° 0 mm 4 mps 684 mmHg 83%
    08:00 -11°C° 0 mm 4 mps 685 mmHg 83%
    09:00 -12°C° 0 mm 4 mps 685 mmHg 83%
    10:00 -11°C° 0 mm 4 mps 685 mmHg 83%
    11:00 -9°C° 0 mm 3 mps 686 mmHg 83%
    12:00 -9°C° 0 mm 4 mps 686 mmHg 83%
    13:00 -9°C° 0.1 mm 4 mps 686 mmHg 84%
    14:00 -8°C° 0.1 mm 3 mps 687 mmHg 85%
    15:00 -9°C° 0.1 mm 3 mps 687 mmHg 87%
    16:00 -9°C° 0.1 mm 3 mps 687 mmHg 87%
    17:00 -9°C° 0.1 mm 3 mps 687 mmHg 87%
    18:00 -9°C° 0.1 mm 3 mps 687 mmHg 88%
    19:00 -10°C° 0 mm 3 mps 687 mmHg 87%
    20:00 -11°C° 0 mm 4 mps 687 mmHg 87%
    21:00 -12°C° 0 mm 4 mps 687 mmHg 86%
    22:00 -12°C° 0 mm 4 mps 687 mmHg 86%
    23:00 -14°C° 0 mm 4 mps 687 mmHg 85%

    Tomorrow, 18 January, Thursday

    Time Temperature Precipitation Wind Pressure Humidity
    00:00 -14°C° 0 mm 4 mps 688 mmHg 84%
    01:00 -15°C° 0 mm 4 mps 687 mmHg 83%
    02:00 -15°C° 0 mm 4 mps 687 mmHg 82%
    03:00 -15°C° 0 mm 4 mps 687 mmHg 82%
    04:00 -15°C° 0 mm 4 mps 687 mmHg 81%
    05:00 -15°C° 0 mm 4 mps 687 mmHg 81%
    06:00 -15°C° 0 mm 4 mps 688 mmHg 81%
    07:00 -14°C° 0.1 mm 4 mps 688 mmHg 81%
    08:00 -14°C° 0.1 mm 4 mps 688 mmHg 82%
    09:00 -12°C° 0.1 mm 4 mps 688 mmHg 83%
    10:00 -12°C° 0.2 mm 4 mps 689 mmHg 85%
    11:00 -11°C° 0.2 mm 4 mps 689 mmHg 86%
    12:00 -11°C° 0.2 mm 4 mps 689 mmHg 88%
    13:00 -10°C° 0.2 mm 3 mps 689 mmHg 89%
    14:00 -10°C° 0.2 mm 3 mps 690 mmHg 89%
    15:00 -10°C° 0.2 mm 3 mps 690 mmHg 90%
    16:00 -10°C° 0.1 mm 3 mps 690 mmHg 90%
    17:00 -11°C° 0.1 mm 4 mps 690 mmHg 89%
    18:00 -11°C° 0.1 mm 4 mps 690 mmHg 88%
    19:00 -11°C° 0 mm 4 mps 690 mmHg 87%
    20:00 -11°C° 0 mm 4 mps 691 mmHg 87%
    21:00 -12°C° 0 mm 4 mps 691 mmHg 86%
    22:00 -12°C° 0.2 mm 4 mps 691 mmHg 86%
    23:00 -12°C° 0.2 mm 4 mps 691 mmHg 86%

    Day after tomorrow, 19 January, Friday

    Time Temperature Precipitation Wind Pressure Humidity
    00:00 -12°C° 0.2 mm 4 mps 691 mmHg 86%
    01:00 -12°C° 0.4 mm 4 mps 691 mmHg 88%
    02:00 -12°C° 0.4 mm 4 mps 691 mmHg 90%
    03:00 -11°C° 0.4 mm 4 mps 691 mmHg 92%
    04:00 -11°C° 0.3 mm 4 mps 691 mmHg 92%
    05:00 -11°C° 0.3 mm 4 mps 692 mmHg 91%
    06:00 -10°C° 0.3 mm 4 mps 692 mmHg 91%
    07:00 -10°C° 0.2 mm 4 mps 692 mmHg 91%
    08:00 -10°C° 0.2 mm 4 mps 692 mmHg 91%
    09:00 -10°C° 0.2 mm 4 mps 692 mmHg 91%
    10:00 -10°C° 0.1 mm 4 mps 693 mmHg 90%
    11:00 -9°C° 0.1 mm 4 mps 693 mmHg 90%
    12:00 -9°C° 0.1 mm 4 mps 693 mmHg 89%
    13:00 -9°C° 0.1 mm 4 mps 693 mmHg 89%
    14:00 -9°C° 0.1 mm 4 mps 693 mmHg 89%
    15:00 -9°C° 0.1 mm 4 mps 693 mmHg 89%
    16:00 -10°C° 0.1 mm 4 mps 694 mmHg 88%
    17:00 -10°C° 0.1 mm 4 mps 694 mmHg 87%
    18:00 -11°C° 0.1 mm 4 mps 694 mmHg 85%
    19:00 -11°C° 0 mm 4 mps 694 mmHg 85%
    20:00 -12°C° 0 mm 4 mps 694 mmHg 84%
    21:00 -12°C° 0 mm 4 mps 694 mmHg 83%
    22:00 -14°C° 0 mm 4 mps 695 mmHg 82%
    23:00 -14°C° 0 mm 4 mps 695 mmHg 82%

    20 January, Saturday

    Time Temperature Precipitation Wind Pressure Humidity
    00:00 -14°C° 0 mm 4 mps 695 mmHg 81%
    01:00 -14°C° 0 mm 4 mps 695 mmHg 81%
    02:00 -13°C° 0 mm 3 mps 696 mmHg 82%
    03:00 -12°C° 0 mm 3 mps 696 mmHg 82%
    04:00 -13°C° 0 mm 3 mps 696 mmHg 83%
    05:00 -13°C° 0 mm 3 mps 696 mmHg 83%
    06:00 -13°C° 0 mm 3 mps 697 mmHg 83%
    07:00 -13°C° 0 mm 3 mps 697 mmHg 83%
    08:00 -13°C° 0 mm 3 mps 697 mmHg 83%
    09:00 -13°C° 0 mm 3 mps 698 mmHg 83%
    10:00 -13°C° 0 mm 3 mps 698 mmHg 83%
    11:00 -12°C° 0 mm 3 mps 699 mmHg 83%
    12:00 -10°C° 0 mm 3 mps 699 mmHg 82%
    13:00 -12°C° 0 mm 3 mps 700 mmHg 82%
    14:00 -12°C° 0 mm 3 mps 700 mmHg 81%
    15:00 -12°C° 0 mm 2 mps 700 mmHg 80%
    16:00 -12°C° 0 mm 2 mps 701 mmHg 80%
    17:00 -13°C° 0 mm 2 mps 701 mmHg 79%
    18:00 -14°C° 0 mm 3 mps 702 mmHg 79%
    19:00 -14°C° 0 mm 3 mps 702 mmHg 78%
    20:00 -14°C° 0 mm 3 mps 702 mmHg 78%
    21:00 -15°C° 0 mm 3 mps 703 mmHg 78%
    22:00 -15°C° 0 mm 3 mps 703 mmHg 78%
    23:00 -15°C° 0 mm 3 mps 703 mmHg 77%

    21 January, Sunday

    Time Temperature Precipitation Wind Pressure Humidity
    00:00 -15°C° 0 mm 3 mps 704 mmHg 77%
    01:00 -15°C° 0 mm 3 mps 704 mmHg 77%
    02:00 -15°C° 0 mm 3 mps 704 mmHg 78%
    03:00 -15°C° 0 mm 3 mps 704 mmHg 78%
    04:00 -15°C° 0 mm 3 mps 704 mmHg 78%
    05:00 -15°C° 0 mm 3 mps 704 mmHg 79%
    06:00 -16°C° 0 mm 4 mps 704 mmHg 79%
    07:00 -16°C° 0 mm 4 mps 704 mmHg 79%
    08:00 -16°C° 0 mm 4 mps 704 mmHg 79%
    09:00 -16°C° 0 mm 4 mps 704 mmHg 80%
    10:00 -15°C° 0 mm 4 mps 704 mmHg 79%
    11:00 -15°C° 0 mm 4 mps 704 mmHg 79%
    12:00 -14°C° 0 mm 4 mps 704 mmHg 78%
    13:00 -14°C° 0 mm 4 mps 704 mmHg 77%
    14:00 -14°C° 0 mm 4 mps 703 mmHg 76%
    15:00 -14°C° 0 mm 4 mps 703 mmHg 75%
    16:00 -14°C° 0 mm 4 mps 703 mmHg 74%
    17:00 -12°C° 0 mm 4 mps 702 mmHg 73%
    18:00 -12°C° 0 mm 4 mps 702 mmHg 72%
    19:00 -12°C° 0.1 mm 5 mps 702 mmHg 72%
    20:00 -12°C° 0.1 mm 5 mps 701 mmHg 73%
    21:00 -12°C° 0.1 mm 6 mps 701 mmHg 74%
    22:00 -11°C° 0.3 mm 6 mps 701 mmHg 79%
    23:00 -11°C° 0.3 mm 6 mps 701 mmHg 84%

    22 January, Monday

    Time Temperature Precipitation Wind Pressure Humidity
    00:00 -11°C° 0.3 mm 6 mps 700 mmHg 90%
    01:00 -11°C° 0.4 mm 6 mps 700 mmHg 91%
    02:00 -11°C° 0.4 mm 6 mps 700 mmHg 91%
    03:00 -10°C° 0.4 mm 6 mps 700 mmHg 92%
    04:00 -10°C° 0.6 mm 5 mps 700 mmHg 93%
    05:00 -10°C° 0.6 mm 5 mps 700 mmHg 93%
    06:00 -9°C° 0.6 mm 4 mps 701 mmHg 93%
    07:00 -8°C° 0.3 mm 4 mps 701 mmHg 93%
    08:00 -8°C° 0.3 mm 4 mps 701 mmHg 92%
    09:00 -7°C° 0.3 mm 4 mps 701 mmHg 92%
    10:00 -7°C° 0.1 mm 4 mps 701 mmHg 92%
    11:00 -5°C° 0.1 mm 4 mps 701 mmHg 91%
    12:00 -5°C° 0.1 mm 4 mps 701 mmHg 91%
    13:00 -5°C° 0.1 mm 4 mps 701 mmHg 91%
    14:00 -5°C° 0.1 mm 4 mps 701 mmHg 91%
    15:00 -4°C° 0.1 mm 4 mps 701 mmHg 91%
    16:00 -4°C° 0.1 mm 4 mps 700 mmHg 91%
    17:00 -5°C° 0.1 mm 3 mps 700 mmHg 91%
    18:00 -5°C° 0.1 mm 3 mps 699 mmHg 91%
    19:00 -4°C° 0.6 mm 3 mps 699 mmHg 92%
    20:00 -4°C° 0.6 mm 3 mps 699 mmHg 93%
    21:00 -4°C° 0.6 mm 3 mps 698 mmHg 95%
    22:00 -4°C° 0.4 mm 4 mps 698 mmHg 94%
    23:00 -4°C° 0.4 mm 4 mps 697 mmHg 94%
    Show more